New Roads False River Regiona, LA

6:00 AM CDT on September 22, 2019 (GMT -0500)
False River

Weather History for KHZR - May, 2019

Change the Weather History Date:

Wednesday, May 29, 2019

  Actual Average (KBTR) Record (KBTR)
Temperature  
Mean Temperature 80 °F -  
Max Temperature 89 °F 88 °F 95 °F (1982)
Min Temperature 71 °F 67 °F 51 °F (1961)
Cooling Degree Days 15    
Growing Degree Days 30 (Base 50)    
Moisture  
Dew Point 70 °F    
Average Humidity 74    
Maximum Humidity 100    
Minimum Humidity 40    
Precipitation  
Precipitation 0.00 in - - ()
Sea Level Pressure  
Sea Level Pressure 29.87 in    
Wind  
Wind Speed 6 mph ()    
Max Wind Speed 15 mph    
Max Gust Speed 21 mph    
Averages and records for this station are not official NWS values.
T = Trace of Precipitation, MM = Missing Value Source: Averaged Metar Reports

Daily Weather History Graph

Daily Weather History Graph

Search for Another Location

Airport or City:

Astronomy

May. 29, 2019 Rise Set
Actual Time 6:04 AM CDT 8:02 PM CDT
Civil Twilight 5:37 AM CDT 8:29 PM CDT
Nautical Twilight 5:04 AM CDT 9:02 PM CDT
Astronomical Twilight 4:29 AM CDT 9:37 PM CDT
Moon 3:17 AM CDT (5/29) 3:34 PM CDT (5/29)
Length of Visible Light 14h 52m
Length of Day
13h 57m
Waning Crescent, 23% of the Moon is Illuminated
May 29
Waning Crescent
Jun 3
New
Jun 10
First Quarter
Jun 17
Full
Jun 25
Last Quarter

Hourly Weather History & Observations

Time (CDT) Temp. Heat Index Dew Point Humidity Pressure Visibility Wind Dir Wind Speed Gust Speed Precip Events Conditions
12:15 AM 75.2 °F - 71.6 °F 89% 29.90 in - SSE 5.8 mph - N/A   Unknown
12:36 AM 75.2 °F - 71.6 °F 89% 29.90 in - SSE 5.8 mph - N/A   Unknown
1:17 AM 73.4 °F - 71.6 °F 94% 29.89 in - SSE 5.8 mph - N/A   Unknown
2:16 AM 73.4 °F - 71.6 °F 94% 29.87 in - SSE 9.2 mph - N/A   Unknown
2:35 AM 75.2 °F - 71.6 °F 89% 29.87 in - SSE 8.1 mph - N/A   Unknown
2:57 AM 73.4 °F - 71.6 °F 94% 29.86 in - SSE 8.1 mph - N/A   Unknown
3:15 AM 73.4 °F - 71.6 °F 94% 29.86 in - South 6.9 mph - N/A   Unknown
3:36 AM 73.4 °F - 71.6 °F 94% 29.86 in - SSE 5.8 mph - N/A   Unknown
3:55 AM 73.4 °F - 71.6 °F 94% 29.86 in - SSE 6.9 mph - N/A   Unknown
4:16 AM 73.4 °F - 71.6 °F 94% 29.85 in - SSE 6.9 mph - N/A   Unknown
4:55 AM 73.4 °F - 71.6 °F 94% 29.86 in - SSE 6.9 mph - N/A   Unknown
5:15 AM 73.4 °F - 71.6 °F 94% 29.86 in - SE 3.5 mph - N/A   Unknown
5:35 AM 73.4 °F - 71.6 °F 94% 29.87 in - Calm Calm - N/A   Unknown
5:55 AM 71.6 °F - 71.6 °F 100% 29.87 in - ESE 4.6 mph - N/A   Unknown
6:15 AM 73.4 °F - 71.6 °F 94% 29.88 in - ESE 3.5 mph - N/A   Unknown
6:55 AM 73.4 °F - 73.4 °F 100% 29.89 in - ESE 3.5 mph - N/A   Mostly Cloudy
7:17 AM 75.2 °F - 73.4 °F 94% 29.89 in - Calm Calm - N/A   Overcast
7:35 AM 75.2 °F - 73.4 °F 94% 29.90 in - SE 3.5 mph - N/A   Overcast
7:54 AM 75.2 °F - 73.4 °F 94% 29.90 in - SE 4.6 mph - N/A   Unknown
8:34 AM 78.8 °F - 73.4 °F 83% 29.92 in - SSE 6.9 mph - N/A   Overcast
9:16 AM 80.6 °F 84.6 °F 71.6 °F 74% 29.92 in - South 10.4 mph - N/A   Overcast
9:36 AM 80.6 °F 84.6 °F 71.6 °F 74% 29.92 in - SSE 10.4 mph - N/A   Mostly Cloudy
9:56 AM 82.4 °F 87.2 °F 71.6 °F 70% 29.92 in - South 8.1 mph - N/A   Scattered Clouds
10:15 AM 82.4 °F 87.2 °F 71.6 °F 70% 29.92 in - South 9.2 mph - N/A   Scattered Clouds
11:15 AM 84.2 °F 88.4 °F 69.8 °F 62% 29.92 in - South 6.9 mph - N/A   Scattered Clouds
11:35 AM 84.2 °F 88.4 °F 69.8 °F 62% 29.92 in - SE 6.9 mph 18.4 mph N/A   Scattered Clouds
12:14 PM 86.0 °F 91.8 °F 71.6 °F 62% 29.91 in - SSE 8.1 mph 17.3 mph N/A   Mostly Cloudy
1:14 PM 87.8 °F 92.6 °F 69.8 °F 55% 29.89 in - South 10.4 mph - N/A   Mostly Cloudy
1:35 PM 87.8 °F 92.6 °F 69.8 °F 55% 29.88 in - SSE 10.4 mph 16.1 mph N/A   Scattered Clouds
2:34 PM 89.6 °F 92.2 °F 66.2 °F 46% 29.85 in - South 10.4 mph - N/A   Scattered Clouds
2:54 PM 89.6 °F 91.1 °F 64.4 °F 43% 29.84 in - SSE 15.0 mph 20.7 mph N/A   Scattered Clouds
3:15 PM 89.6 °F 91.1 °F 64.4 °F 43% 29.84 in - SSE 12.7 mph - N/A   Clear
3:34 PM 89.6 °F 90.1 °F 62.6 °F 40% 29.83 in - South 10.4 mph - N/A   Clear
3:55 PM 89.6 °F 91.1 °F 64.4 °F 43% 29.83 in - South 10.4 mph 18.4 mph N/A   Clear
4:14 PM 89.6 °F 90.1 °F 62.6 °F 40% 29.83 in - South 15.0 mph - N/A   Clear
5:38 PM 87.8 °F 89.4 °F 64.4 °F 46% 29.82 in - South 8.1 mph - N/A   Clear
6:57 PM 86.0 °F 87.3 °F 64.4 °F 48% 29.83 in - South 5.8 mph - N/A   Clear
8:17 PM 80.6 °F 82.7 °F 66.2 °F 61% 29.84 in - South 5.8 mph - N/A   Clear
8:54 PM 80.6 °F 82.7 °F 66.2 °F 61% 29.84 in - South 3.5 mph - N/A   Clear
9:35 PM 78.8 °F - 66.2 °F 65% 29.86 in - South 5.8 mph - N/A   Clear
9:55 PM 78.8 °F - 66.2 °F 65% 29.87 in - South 4.6 mph - N/A   Clear
11:55 PM 75.2 °F - 68.0 °F 78% 29.87 in - South 6.9 mph - N/A   Clear